This demonstration page uses our WeatherBlox Daily Observations layout. Learn more.

39.92423, -83.80882

Hourly Observations for April 24, 2015

Temp ( °F °C ) Dew Point ( °F °C ) Humidity (%) Winds ( mph kmh ) Pressure ( in mb ) Visibility ( mi km ) Precip ( " mm )
12:56 am 00:56 Clear 38 3.3 22 -5.5 53 53 Calm 30.11 1020 8 12.87472 0 0
1:56 am 01:56 Clear 33 0.5 25 -3.8 73 73 Calm 30.12 1020 8 12.87472 0 0
2:56 am 02:56 Clear 30 -1.1 26 -3.3 85 85 Calm 30.11 1020 8 12.87472 0 0
3:56 am 03:56 Clear 29 -1.6 26 -3.3 88 88 Calm 30.13 1020 8 12.87472 0 0
4:56 am 04:56 Clear 27 -2.7 25 -3.8 92 92 SE 3 6 30.13 1020 7 11.26538 0 0
5:56 am 05:56 Clear 28 -2.2 25 -3.8 89 89 S 3 6 30.13 1020 7 11.26538 0 0
6:56 am 06:56 Sunny with Mist and Fog 27 -2.7 24 -4.4 88 88 Calm 30.14 1021 6 9.65604 0 0
7:56 am 07:56 Hazy 33 0.5 27 -2.7 79 79 SSW 5 7 30.16 1021 6 9.65604 0 0
8:56 am 08:56 Hazy 41 5 27 -2.7 58 58 SSW 6 9 30.16 1021 6 9.65604 0 0
9:56 am 09:56 Sunny 46 7.7 27 -2.7 48 48 S 7 11 30.15 1021 7 11.26538 0 0
10:56 am 10:56 Sunny 50 10 26 -3.3 39 39 WSW 10 17 30.15 1021 7 11.26538 0 0
11:56 am 11:56 Hazy 52 11.1 24 -4.4 34 34 W 6 9 30.14 1021 6 9.65604 0 0
12:56 pm 12:56 Hazy 54 12.2 24 -4.4 31 31 W 10 17 30.12 1020 6 9.65604 0 0
1:56 pm 13:56 Hazy 56 13.3 24 -4.4 29 29 VRB 6 9 30.11 1020 6 9.65604 0 0
2:56 pm 14:56 Hazy 58 14.4 27 -2.7 31 31 SW 12 19 30.09 1019 6 9.65604 0 0
3:56 pm 15:56 Hazy 58 14.4 26 -3.3 29 29 SSW 9 15 30.05 1018 6 9.65604 0 0
4:56 pm 16:56 Hazy 58 14.4 23 -5 26 26 Calm 30.03 1017 6 9.65604 0 0
5:56 pm 17:56 Mostly Cloudy with Haze 58 14.4 25 -3.8 28 28 VRB 3 6 30.01 1016 6 9.65604 0 0
6:56 pm 18:56 Sunny 57 13.8 28 -2.2 33 33 S 5 7 30.01 1016 7 11.26538 0 0
7:56 pm 19:56 Hazy 56 13.3 28 -2.2 34 34 S 3 6 30.01 1016 6 9.65604 0 0
8:56 pm 20:56 Partly Cloudy 53 11.6 30 -1.1 42 42 SE 3 6 29.98 1015 8 12.87472 0 0
9:56 pm 21:56 Mostly Cloudy 51 10.5 34 1.1 52 52 SE 5 7 29.97 1015 7 11.26538 0 0
10:56 pm 22:56 Cloudy 51 10.5 36 2.2 57 57 SE 5 7 29.96 1014 7 11.26538 0 0
11:56 pm 23:56 Cloudy 50 10 37 2.7 61 61 SE 5 7 29.95 1014 7 11.26538 0 0.0254

Powered by AerisWeather